Weather History for Whiting Fld NAS, FL

Change the Weather History Date:

Friday, February 21, 2014

  Actual Average Record
Temperature  
Mean Temperature 58 °F -  
Max Temperature 68 °F 64 °F 81 °F (2011)
Min Temperature 46 °F 46 °F 28 °F (2009)
Degree Days  
Heating Degree Days 7    
Growing Degree Days 8 (Base 50)    
Moisture  
Dew Point 48 °F    
Average Humidity 70    
Maximum Humidity 93    
Minimum Humidity 25    
Precipitation  
Precipitation 0.82 in - - ()
Sea Level Pressure  
Sea Level Pressure 29.97 in    
Wind  
Wind Speed 15 mph (NNW)    
Max Wind Speed 29 mph    
Max Gust Speed 40 mph    
Visibility 7 miles    
Events Fog , Rain , Thunderstorm    
Averages and records for this station are not official NWS values.
T = Trace of Precipitation, MM = Missing Value Source: NWS Daily Summary

Daily Weather History Graph

Daily Weather History Graph

Search for Another Location

Airport:

Trip Planner

Search our weather history database for the weather conditions in past years. The results will help you decide how hot, cold, wet, or windy it might be!

Date:

Astronomy

Feb. 21, 2014 Rise Set
Actual Time 6:22 AM CST 5:40 PM CST
Civil Twilight 5:58 AM CST 6:05 PM CST
Nautical Twilight 5:30 AM CST 6:33 PM CST
Astronomical Twilight 5:02 AM CST 7:01 PM CST
Moon No Moon Rise 10:14 AM CST (2/21)
Length of Visible Light 12h 06m
Length of Day
11h 17m
Waning Gibbous, 60% of the Moon is Illuminated
Feb 21
Waning Gibbous
Feb 22
Last Quarter
Mar 1
New
Mar 8
First Quarter
Mar 16
Full

Hourly Weather History & Observations

Time (CST) Temp. Windchill Dew Point Humidity Pressure Visibility Wind Dir Wind Speed Gust Speed Precip Events Conditions
12:09 AM 68.0 °F - 64.9 °F 90% 29.92 in 5.0 mi South 16.1 mph 24.2 mph N/A   Overcast
12:19 AM 68.0 °F - 64.9 °F 90% 29.92 in 4.0 mi South 19.6 mph - N/A   Overcast
12:56 AM 68.0 °F - 64.9 °F 90% 29.87 in 3.0 mi South 17.3 mph 29.9 mph 0.00 in   Overcast
1:05 AM 68.0 °F - 64.9 °F 90% 29.91 in 2.5 mi South 21.9 mph 27.6 mph N/A   Overcast
1:12 AM 68.0 °F - 64.9 °F 90% 29.90 in 3.0 mi South 21.9 mph 31.1 mph N/A   Overcast
1:56 AM 68.0 °F - 66.0 °F 93% 29.86 in 4.0 mi South 19.6 mph 28.8 mph N/A   Overcast
2:56 AM 68.0 °F - 66.0 °F 93% 29.83 in 3.0 mi South 17.3 mph 24.2 mph N/A   Overcast
3:04 AM 68.0 °F - 66.0 °F 93% 29.88 in 2.5 mi South 15.0 mph 24.2 mph N/A Thunderstorm Overcast
3:30 AM 66.0 °F - 63.0 °F 90% 29.93 in 0.8 mi West 28.8 mph 40.3 mph 0.28 in Rain , Thunderstorm Heavy Thunderstorms and Rain
3:38 AM 62.1 °F - 57.9 °F 86% 29.93 in 0.5 mi WSW 15.0 mph 36.8 mph 0.52 in Fog , Rain , Thunderstorm Heavy Thunderstorms and Rain
3:41 AM 61.0 °F - 57.9 °F 90% 29.93 in 1.0 mi WSW 13.8 mph - 0.58 in Rain , Thunderstorm Heavy Thunderstorms and Rain
3:53 AM 60.8 °F - 57.2 °F 88% 29.87 in - Variable 3.5 mph - 0.75 in Rain , Thunderstorm Heavy Thunderstorms and Rain
3:57 AM 60.8 °F - 57.2 °F 88% 29.91 in 1.0 mi West 6.9 mph - 0.77 in Rain , Thunderstorm Heavy Thunderstorms and Rain
4:03 AM 61.0 °F - 59.0 °F 93% 29.88 in 1.5 mi SW 6.9 mph - 0.82 in Rain , Thunderstorm Heavy Thunderstorms and Rain
4:29 AM 61.0 °F - 59.0 °F 93% 29.92 in 2.5 mi NW 9.2 mph - 0.13 in Rain , Thunderstorm Thunderstorms and Rain
4:42 AM 61.0 °F - 59.0 °F 93% 29.93 in 3.0 mi NW 4.6 mph - 0.15 in Rain , Thunderstorm Thunderstorms and Rain
4:56 AM 59.0 °F - 55.9 °F 90% 29.93 in 7.0 mi North 23.0 mph 36.8 mph 0.15 in Rain , Thunderstorm Light Thunderstorms and Rain
5:03 AM 54.0 °F - 48.9 °F 83% 30.00 in 8.0 mi NNW 20.7 mph 35.7 mph 0.00 in Rain , Thunderstorm Light Thunderstorms and Rain
5:12 AM 53.1 °F - 48.0 °F 83% 29.98 in 10.0 mi NNW 16.1 mph 33.4 mph 0.00 in Rain Light Rain
5:56 AM 51.1 °F - 45.0 °F 80% 29.97 in 10.0 mi NNW 12.7 mph 31.1 mph 0.00 in   Overcast
6:10 AM 50.0 °F - 44.1 °F 80% 30.02 in 10.0 mi NNW 13.8 mph 26.5 mph N/A   Mostly Cloudy
6:56 AM 50.0 °F - 41.0 °F 71% 30.01 in 10.0 mi North 12.7 mph 25.3 mph N/A   Mostly Cloudy
7:56 AM 51.1 °F - 37.0 °F 59% 30.03 in 10.0 mi North 11.5 mph 21.9 mph N/A   Mostly Cloudy
8:56 AM 54.0 °F - 36.0 °F 51% 30.06 in 10.0 mi North 9.2 mph 20.7 mph N/A   Mostly Cloudy
9:56 AM 57.0 °F - 32.0 °F 39% 30.06 in 10.0 mi NNE 13.8 mph 21.9 mph N/A   Scattered Clouds
10:56 AM 60.1 °F - 30.9 °F 33% 30.06 in 10.0 mi North 10.4 mph 16.1 mph N/A   Scattered Clouds
11:56 AM 64.0 °F - 27.0 °F 25% 30.04 in 10.0 mi NNE 8.1 mph 18.4 mph N/A   Partly Cloudy
12:56 PM 66.0 °F - 28.9 °F 25% 30.01 in 10.0 mi North 16.1 mph - N/A   Scattered Clouds
1:56 PM 66.9 °F - 30.9 °F 26% 30.00 in 10.0 mi North 13.8 mph - N/A   Scattered Clouds
2:56 PM 66.0 °F - 30.0 °F 26% 29.99 in 10.0 mi North 11.5 mph - N/A   Scattered Clouds
3:56 PM 64.9 °F - 28.9 °F 26% 30.00 in 10.0 mi North 11.5 mph - N/A   Scattered Clouds
4:56 PM 62.1 °F - 33.1 °F 34% 30.00 in 10.0 mi North 8.1 mph - N/A   Mostly Cloudy
5:56 PM 54.0 °F - 37.9 °F 55% 30.02 in 10.0 mi North 5.8 mph - N/A   Mostly Cloudy
6:56 PM 52.0 °F - 42.1 °F 69% 30.03 in 10.0 mi North 5.8 mph - N/A   Mostly Cloudy
7:56 PM 51.1 °F - 39.0 °F 63% 30.04 in 10.0 mi North 5.8 mph - N/A   Mostly Cloudy
8:22 PM - - - N/A% - - North - - N/A   Unknown
8:56 PM 48.9 °F - 39.9 °F 71% 30.05 in 10.0 mi NNW 4.6 mph - N/A   Partly Cloudy
9:56 PM 48.0 °F - 39.0 °F 71% 30.06 in 10.0 mi North 6.9 mph - N/A   Partly Cloudy
10:56 PM 48.0 °F - 35.1 °F 61% 30.06 in 10.0 mi North 4.6 mph - N/A   Partly Cloudy
11:56 PM 46.0 °F 43.9 °F 34.0 °F 63% 30.06 in 10.0 mi North 4.6 mph - N/A   Clear